Home   Weather   Greensboro   Past weeks

Flag for USA Past Weather in Greensboro, North Carolina, USA — Yesterday and Last 2 Weeks

60 °F

Scattered clouds.

Feels Like: 60 °F
Forecast: 42 / 66 °F
Wind: No wind

Location: Piedmont Triad International Airport

Current Time: Oct 26, 2016 at 1:12:37 PM

Latest Report: Oct 26, 2016 at 11:54 AM

Visibility: 10 mi

Pressure: 30.42 "Hg

Humidity: 53%

Dew Point: 43 °F

Location of GreensboroLocation

Past Weather in Greensboro — Graph


Greensboro Temperature Yesterday

Maximum temperature yesterday: 67 °F (at 3:54 PM)
Minimum temperature yesterday: 46 °F (at 4:54 AM)
Average temperature yesterday: 55 °F

High & Low Weather Summary for the Past Weeks

High87 °F (Oct 19, 2:54 PM)100% (Oct 19, 4:54 AM)30.43 "Hg (Oct 19, 4:54 AM)
Low38 °F (Oct 23, 6:54 AM)24% (Oct 24, 4:54 PM)29.67 "Hg (Oct 21, 3:54 PM)
Average62 °F69%30.12 "Hg
* Reported Oct 11 11:54 AM — Oct 26 11:54 AM, Greensboro, Weather by CustomWeather, © 2016

Note: Actual official high and low records may vary slightly from our data, if they occured in-between our weather recording intervals... More about our weather records


Greensboro Weather History for the Previous 24 Hours

Scroll right to see more
Time TempWeatherWind HumidityBarometerVisibility
11:54 AM
Wed, Oct 26
60 °FScattered clouds.No wind53%30.42 "Hg10 mi
10:54 AM54 °FPassing clouds.No wind67%30.42 "Hg10 mi
9:54 AM49 °FPassing clouds.6 mph80%30.42 "Hg10 mi
8:54 AM45 °FPassing clouds.3 mph86%30.42 "Hg10 mi
7:54 AM42 °FScattered clouds.6 mph92%30.40 "Hg10 mi
6:54 AM42 °FClear.6 mph92%30.38 "Hg10 mi
5:54 AM44 °FClear.5 mph85%30.37 "Hg10 mi
4:54 AM43 °FClear.No wind93%30.35 "Hg10 mi
3:54 AM43 °FClear.No wind89%30.35 "Hg10 mi
2:54 AM45 °FClear.5 mph86%30.35 "Hg10 mi
1:54 AM46 °FClear.No wind86%30.34 "Hg10 mi
12:54 AM48 °FClear.No wind80%30.34 "Hg10 mi
11:54 PM
Tue, Oct 25
47 °FClear.No wind83%30.34 "Hg10 mi
10:54 PM51 °FClear.No wind74%30.34 "Hg10 mi
9:54 PM52 °FClear.No wind69%30.32 "Hg10 mi
8:54 PM52 °FClear.No wind69%30.32 "Hg10 mi
7:54 PM54 °FPassing clouds.No wind62%30.31 "Hg10 mi
6:54 PM59 °FPassing clouds.5 mph44%30.29 "Hg10 mi
5:54 PM64 °FScattered clouds.No wind32%30.27 "Hg10 mi
4:54 PM66 °FPartly sunny.5 mph29%30.27 "Hg10 mi
3:54 PM67 °FPartly sunny.3 mph30%30.27 "Hg10 mi
2:54 PM65 °FPassing clouds.No wind32%30.29 "Hg10 mi
1:54 PM64 °FPassing clouds.6 mph30%30.31 "Hg10 mi
Weather by CustomWeather, © 2016

See weather overviewHow to use our weather pages